sat.trackr.live / text

‹ back to catalog

2024-153D

NORAD 60748 · 2024-153D

PAYLOAD ACTIVE UNKNOWN

§ Identity

Operator
Country
PRC
Launch date
2024-08-29
Launch site
YSLA
Launch vehicle
Mass (kg)
RCS (m²)

External: N2YO · Heavens-Above · Gunter

§ Orbital elements

Epoch: 2026-05-25T04:11:03.151392Z

Period
94.30 min
Inclination
97.6757°
Eccentricity
0.0000623
Mean motion
15.27119094 rev/d
Perigee alt
484.0 km
Apogee alt
484.9 km
Semi-major
6,862.6 km
B*
5.3128e-4
RAAN
282.4148°
Arg perigee
268.0294°
Mean anomaly
92.0873°
Rev number
9,633

§ Raw data

2024-153D1 60748U 24153D   26145.17434203  .00014065  00000+0  53128-3 0  99992 60748  97.6757 282.4148 0000623 268.0294  92.0873 15.27119094 96338

JSON: /api/v1/satellites/60748 · /tle

For live sub-satellite position, see the globe view (requires WebGL).

§ Visibility from observer

Set your observer location to see the next 7 days of passes ≥ 10°. The values pass through the URL so the page stays shareable.

No JS? Fill the form by hand. The geolocation button needs JavaScript.